Big Delta, AK

7:16 PM AKDT on September 19, 2017 (GMT -0800)
Allen Army Air Field

Weather History for PABI - May, 2013

Change the Weather History Date:

Monday, May 20, 2013

  Actual Average Record
Temperature  
Mean Temperature 36 °F -  
Max Temperature 50 °F 56 °F 75 °F (2002)
Min Temperature 23 °F 36 °F 23 °F (2013)
Degree Days  
Heating Degree Days 28    
Moisture  
Dew Point 11 °F    
Average Humidity 35    
Maximum Humidity 63    
Minimum Humidity 11    
Precipitation  
Precipitation 0.00 in - - ()
Sea Level Pressure  
Sea Level Pressure 30.61 in    
Wind  
Wind Speed 8 mph (SW)    
Max Wind Speed 12 mph    
Max Gust Speed -    
Visibility 10 miles    
Events      
Averages and records for this station are not official NWS values.
T = Trace of Precipitation, MM = Missing Value Source: NWS Daily Summary

Daily Weather History Graph

Daily Weather History Graph

Search for Another Location

Airport or City:

Trip Planner

Search our weather history database for the weather conditions in past years. The results will help you decide how hot, cold, wet, or windy it might be!

Date:

Astronomy

May. 20, 2013 Rise Set
Actual Time 4:12 AM AKDT 11:08 PM AKDT
Civil Twilight 2:11 AM AKDT 1:07 AM AKDT
Nautical Twilight Sun does not set Sun does not set
Astronomical Twilight Sun does not set Sun does not set
Moon 4:40 PM AKDT 3:10 AM AKDT
Length of Visible Light 22h 55m
Length of Day
18h 55m
Waxing Gibbous, 76% of the Moon is Illuminated
May 20
Waxing Gibbous
May 24
Full
May 31
Last Quarter
Jun 8
New
Jun 16
First Quarter

Hourly Weather History & Observations

Time (AKDT) Temp. Windchill Dew Point Humidity Pressure Visibility Wind Dir Wind Speed Gust Speed Precip Events Conditions
12:53 AM 27.0 °F 17.3 °F 12.0 °F 53% 30.68 in 10.0 mi SW 10.4 mph - N/A   Clear
1:53 AM 26.1 °F 15.6 °F 10.9 °F 53% 30.69 in 10.0 mi SW 11.5 mph - N/A   Clear
2:53 AM 25.0 °F 14.2 °F 10.9 °F 55% 30.69 in 10.0 mi SW 11.5 mph - N/A   Clear
3:53 AM 23.0 °F 17.0 °F 12.0 °F 63% 30.71 in 10.0 mi SE 4.6 mph - N/A   Clear
4:53 AM 23.0 °F 15.8 °F 12.0 °F 63% 30.72 in 10.0 mi SW 5.8 mph - N/A   Clear
5:53 AM 24.1 °F 18.2 °F 10.9 °F 57% 30.72 in 10.0 mi SSW 4.6 mph - N/A   Clear
6:53 AM 27.0 °F - 12.9 °F 56% 30.71 in 10.0 mi Calm Calm - N/A   Partly Cloudy
7:53 AM 30.0 °F - 12.9 °F 49% 30.69 in 10.0 mi Calm Calm - N/A   Partly Cloudy
8:53 AM 34.0 °F - 12.0 °F 40% 30.69 in 10.0 mi Calm Calm - N/A   Partly Cloudy
9:53 AM 37.9 °F 32.7 °F 12.0 °F 35% 30.68 in 10.0 mi ENE 6.9 mph - N/A   Partly Cloudy
10:53 AM 39.9 °F 33.4 °F 10.9 °F 31% 30.66 in 10.0 mi East 10.4 mph - N/A   Partly Cloudy
11:53 AM 43.0 °F 40.3 °F 9.0 °F 25% 30.64 in 10.0 mi East 4.6 mph - N/A   Partly Cloudy
12:53 PM 44.1 °F 39.0 °F 7.0 °F 22% 30.63 in 10.0 mi ESE 9.2 mph - N/A   Partly Cloudy
1:53 PM 46.9 °F - 9.0 °F 21% 30.61 in 10.0 mi Variable 4.6 mph - N/A   Partly Cloudy
2:53 PM 46.0 °F 41.4 °F 12.0 °F 25% 30.59 in 10.0 mi SW 9.2 mph - N/A   Partly Cloudy
3:53 PM 48.0 °F - 10.9 °F 22% 30.57 in 10.0 mi West 8.1 mph - N/A   Partly Cloudy
4:53 PM 48.9 °F - 10.9 °F 22% 30.56 in 10.0 mi WSW 11.5 mph - N/A   Partly Cloudy
5:53 PM 48.0 °F - 9.0 °F 21% 30.54 in 10.0 mi WSW 10.4 mph - N/A   Partly Cloudy
6:53 PM 48.9 °F - 8.1 °F 19% 30.52 in 10.0 mi WSW 10.4 mph - N/A   Partly Cloudy
7:53 PM 48.9 °F - 10.0 °F 21% 30.50 in 10.0 mi West 9.2 mph - N/A   Partly Cloudy
8:53 PM 46.0 °F 42.5 °F 12.0 °F 25% 30.50 in 10.0 mi WSW 6.9 mph - N/A   Partly Cloudy
9:53 PM 43.0 °F 38.8 °F 10.9 °F 27% 30.49 in 10.0 mi WSW 6.9 mph - N/A   Clear
10:53 PM 39.0 °F 34.8 °F 10.9 °F 32% 30.49 in 10.0 mi SW 5.8 mph - N/A   Clear
11:53 PM 36.0 °F 29.6 °F 12.0 °F 37% 30.50 in 10.0 mi SW 8.1 mph - N/A   Clear